Location: Banksville Park
(38.5557°N, 75.1182°W)
Time: 04:11:14
(UTC+00:00)

Envisat - Pass Details

Date: 29 November 2020
Orbit: 764 x 766 km, 98.1° (Epoch: 16 January)

Event Time Altitude Azimuth Distance (km) Brightness Sun altitude
Rises 09:55:42 0° 27° (NNE) 3,239 6.5 -23.4°
Reaches altitude 10° 09:58:29 10° 42° (NE) 2,308 5.9 -22.8°
Maximum altitude 10:02:29 23° 94° (E) 1,581 5.4 -22.1°
Drops below altitude 10° 10:06:27 10° 146° (SSE) 2,294 6.1 -21.3°
Sets 10:09:12 0° 161° (SSE) 3,215 6.7 -20.8°
